Home > Weather > Windhoek > Past weeks

Flag for Namibia Past Weather in Windhoek, Namibia — Yesterday and Last 2 Weeks

Now
37 °F

Clear.


Feels Like: 35 °F
Forecast: 48 / 75 °F
Wind: 3 mph from West

Location: Hosea Kutako International Airport

Current Time: Jun 29, 2016 at 4:45:59 AM

Latest Report: Jun 29, 2016 at 4:00 AM


Visibility: 10 mi

Pressure: 30.36 "Hg (24.66 "Hg at 1680m altitude)

Humidity: 52%

Dew Point: 21 °F

Location of WindhoekLocation

Past Weather in Windhoek — Graph

°F

Windhoek Temperature Yesterday

Maximum temperature yesterday: 73 °F (at 3:00 PM)
Minimum temperature yesterday: 32 °F (at 5:00 AM)
Average temperature yesterday: 49 °F

High & Low Weather Summary for the Past Weeks

 TemperatureHumidityPressure
High81 °F (Jun 14, 4:00 PM)81% (Jun 25, 7:00 AM)30.54 "Hg (Jun 25, 7:00 AM)
Low28 °F (Jun 26, 6:00 AM)2% (Jun 15, 12:00 PM)30.21 "Hg (Jun 17, 2:00 PM)
Average53 °F32%30.37 "Hg
* Reported Jun 14 3:00 AM — Jun 29 3:00 AM, Windhoek, Weather by CustomWeather, © 2016

Note: Actual official high and low records may vary slightly from our data, if they occured in-between our weather recording intervals... More about our weather records

Advertising

Windhoek Weather History for the Previous 24 Hours

Scroll right to see more
 ConditionsComfort  
Time TempWeatherWind HumidityBarometerVisibility
3:00 AM
Wed, Jun 29
36 °FClear.3 mph52%30.36 "Hg10 mi
11:00 PM
Tue, Jun 28
41 °FClear.3 mph39%30.39 "Hg10 mi
10:00 PM43 °FClear.5 mph36%30.39 "Hg10 mi
9:00 PM43 °FClear.6 mph36%30.36 "Hg10 mi
8:00 PM43 °FClear.5 mph34%30.39 "Hg10 mi
7:00 PM52 °FClear.No wind26%30.36 "Hg10 mi
6:00 PM57 °FClear.3 mph23%30.33 "Hg10 mi
5:00 PM68 °FClear.5 mph16%30.33 "Hg10 mi
4:00 PM72 °FSunny.6 mph14%30.33 "Hg10 mi
3:00 PM73 °FSunny.No wind14%30.33 "Hg10 mi
1:00 PM68 °FSunny.6 mph20%30.33 "Hg10 mi
12:00 PM66 °FSunny.3 mph21%30.36 "Hg10 mi
11:00 AM64 °FSunny.5 mph21%30.39 "Hg10 mi
7:00 AM36 °FSunny.6 mph52%30.39 "Hg10 mi
5:00 AM32 °FClear.3 mph55%30.36 "Hg10 mi
4:00 AM34 °FClear.6 mph51%30.36 "Hg10 mi
Weather by CustomWeather, © 2016

See weather overviewHow to use our weather pages